Regional Weather Roundup
Issued by NWS

Home | Current Version | Previous Version | Text Only | Print | Product List | Glossary Off
Versions: 1 2 3 4 5 6 7 8 9 10 11 12 13 14 15 16 17 18 19 20 21 22 23 24 25 26 27 28 29 30 31 32 33 34 35 36 37 38 39 40 41 42 43 44 45 46 47 48 49 50

000
ASUS45 KCYS 030610
RWRWY

WYOMING REGIONAL WEATHER ROUNDUP
NATIONAL WEATHER SERVICE CHEYENNE WY
1200 AM MDT SUN MAY 03 2015

NOTE:  "FAIR" INDICATES FEW OR NO CLOUDS BELOW 12,000 FEET
WITH NO SIGNIFICANT WEATHER AND/OR OBSTRUCTIONS TO VISIBILITY.

WYZ001-030700-
YELLOWSTONE NATIONAL PARK

CITY           SKY/WX    TMP DP  RH WIND       PRES   REMARKS
LK YELLOWSTONE   N/A     39  29  67 NW3       30.00R
6HR MIN TEMP:  39; 6HR MAX TEMP:  55;

W YELLOWSTONE  NOT AVBL

$$
WYZ002>013-054>058-071-098>099-030700-
NORTHERN WYOMING

CITY           SKY/WX    TMP DP  RH WIND       PRES   REMARKS
JACKSON        FAIR      48  34  57 CALM      29.93S
CODY           FAIR      57  27  30 N6        29.89F
GREYBULL       FAIR      63  27  25 NW16      29.79R
6HR MIN TEMP:  63; 6HR MAX TEMP:  79;

WORLAND        FAIR      60  30  32 NW5       29.80R
6HR MIN TEMP:  58; 6HR MAX TEMP:  77;

SHERIDAN       FAIR      53  36  52 W9        29.85R
6HR MIN TEMP:  52; 6HR MAX TEMP:  73;

BUFFALO        MOCLDY    58  28  32 NW12      29.87S
6HR MIN TEMP:  53; 6HR MAX TEMP:  72;

GILLETTE       FAIR      45  33  63 SW5       29.82R
6HR MIN TEMP:  43; 6HR MAX TEMP:  74;

HULETT         FAIR      52  27  37 S3        29.82R
NEWCASTLE      FAIR      52  30  43 E8        29.82R

$$
WYZ014>020-022>026-101>103-030700-
CENTRAL WYOMING

CITY           SKY/WX    TMP DP  RH WIND       PRES   REMARKS
BIG PINEY      FAIR      43  31  62 N3        30.01R
6HR MIN TEMP:  40; 6HR MAX TEMP:  62;

PINEDALE       FAIR      41  32  70 NW5       30.01S
DUBOIS         FAIR      46  28  49 N7        29.96S
LANDER         FAIR      61  26  26 NW3       29.87S
6HR MIN TEMP:  58; 6HR MAX TEMP:  69;

RIVERTON       FAIR      57  28  33 W13       29.88S
6HR MIN TEMP:  57; 6HR MAX TEMP:  71;

CASPER         FAIR      55  35  47 SW9       29.86S
6HR MIN TEMP:  54; 6HR MAX TEMP:  72; 6HR PCP: TRACE;

DOUGLAS        FAIR      55  41  59 S9        29.86R
6HR MIN TEMP:  53; 6HR MAX TEMP:  72;


$$
WYZ021-027>030-104>119-030700-
SOUTHERN WYOMING

CITY           SKY/WX    TMP DP  RH WIND       PRES   REMARKS
EVANSTON       MOCLDY    51  31  46 E3        30.04S
6HR MIN TEMP:  50; 6HR MAX TEMP:  69;

KEMMERER       CLOUDY    46  32  57 SW8       30.06R
FORT BRIDGER   MOCLDY    50  36  57 W7        30.06S
ROCK SPRINGS   CLOUDY    48  38  68 SW8       30.03R
6HR MIN TEMP:  47; 6HR MAX TEMP:  60; 6HR PCP:  0.02;

DIXON          FAIR      45  37  74 E7        30.08R
RAWLINS        FAIR      54  32  43 W16G25    30.00R
6HR MIN TEMP:  53; 6HR MAX TEMP:  59;

SARATOGA       CLOUDY    50  34  53 SE6       30.05R
LARAMIE        FAIR      48  34  58 SW12      30.02S
6HR MIN TEMP:  48; 6HR MAX TEMP:  52;

CHEYENNE       MOCLDY    56  35  45 W16       29.94F
6HR MIN TEMP:  55; 6HR MAX TEMP:  64;

TORRINGTON     FAIR      60  40  47 VRB3      29.81S
6HR MIN TEMP:  56; 6HR MAX TEMP:  78;

PINE BLUFFS    CLOUDY    50  43  76 S10       29.92S

$$


USA.gov is the U.S. government's official web portal to all federal, state and local government web resources and services.